Tracking 31027 objects as of 19-Jul-2025
HD Live streaming from Space Station
objects crossing your sky now

FENGYUN 1C DEB

Track FENGYUN 1C DEB now!
10-day predictions


NORAD ID: 32156
Int'l Code: 1999-025CTA
Perigee: 734.1 km
Apogee: 853.2 km
Inclination: 99.3 °
Period: 100.6 minutes
Semi major axis: 7164 km
RCS: 0.0148 m2 (small)
Launch date: May 10, 1999
Source: People's Republic of China (PRC)
Launch site: Taiyaun Space Center, China (TSC)

Note: This is SATELLITE DEBRIS
Your satellite tracking list
Your tracking list is empty




NASA's NSSDC Master Catalog

Two Line Element Set (TLE):
1 32156U 99025CTA 25194.22828902  .00000611  00000-0  23918-3 0  9990
2 32156  99.3426 352.0981 0083135 136.0199 224.7637 14.31562089626384
Source of the keplerian elements: AFSPC